Back to catalog

STARLINK-3764

AliveCommunicationsVLEO
NORAD 52280·PAYLOAD·🇺🇸 United States

Launched Apr 21, 2022 from Cape Canaveral Space Force Station

Loading…

Next Passes (next 24 hours)

TLE

FreshSource: CelesTrak SupGP

Epoch: Sep 14, 2026, 14:15 UTC

1 52280C 22041V   26257.59423611  .00032442  00000+0  10435-2 0  2575
2 52280  53.1591 328.5619 0001251  73.6948  38.7530 15.31678171    10

Track STARLINK-3764 in real time with AllMySat

Download on the App Store